Hourly Data Report for May 29, 2012

All times are specified in Local Standard Time (LST). Add 1 hour to adjust for Daylight Saving Time where and when it is observed.

CHURCHILL A
MANITOBA

58°44'21.000" N
94°03'59.000" W
29.30 m
5060605
71618
YYQ

Related Data

No related data is available for this station

Download Data

Hourly Data (May 2012)
Hourly Data Report for May 29, 2012
Temp Definition
°C
Dew Point Temp Definition
°C
Rel Hum Definition
%
Wind Dir Definition
10's deg

Wind Spd Definition
km/h
Visibility Definition
km
Stn Press Definition
kPa
Hmdx Definition


Wind Chill Definition


Weather Definition


TIME
00:00 Legend Double Dagger -2.8 -4.4 89 2 10 10.0 101.98   -7 Cloudy
01:00 Legend Double Dagger -3.1 -4.8 88 12 12 10.0 101.95   -8 LegendNANA
02:00 Legend Double Dagger -3.0 -4.7 88 2 10 10.0 101.91   -7 LegendNANA
03:00 Legend Double Dagger -3.1 -4.5 90 2 14 10.0 101.88   -8 Cloudy
04:00 Legend Double Dagger -3.3 -5.0 88 0 17 10.0 101.85   -9 LegendNANA
05:00 Legend Double Dagger -3.4 -5.0 89 1 10 10.0 101.84   -7 LegendNANA
06:00 Legend Double Dagger -3.4 -5.1 88 24 6 10.0 101.85   -6 Cloudy
07:00 Legend Double Dagger -3.3 -5.2 87 32 8 10.0 101.84   -7 LegendNANA
08:00 Legend Double Dagger -2.6 -5.1 83 22 11 10.0 101.83   -7 LegendNANA
09:00 Legend Double Dagger -1.7 -4.9 79 23 11 10.0 101.79   -6 Cloudy
10:00 Legend Double Dagger -0.6 -4.3 76 25 17 10.0 101.69   -6 LegendNANA
11:00 Legend Double Dagger 0.9 -3.2 74 25 20 10.0 101.59     LegendNANA
12:00 Legend Double Dagger 3.1 -3.5 62 21 12 10.0 101.50     Mainly Clear
13:00 Legend Double Dagger 4.7 -2.2 61 24 23 10.0 101.38     LegendNANA
14:00 Legend Double Dagger 6.2 -2.2 55 23 23 10.0 101.27     LegendNANA
15:00 Legend Double Dagger 7.7 -1.3 53 23 26 10.0 101.15     Mainly Clear
16:00 Legend Double Dagger 9.1 -0.8 50 23 30 10.0 101.03     LegendNANA
17:00 Legend Double Dagger 10.5 0.0 48 21 21 10.0 100.90     LegendNANA
18:00 Legend Double Dagger 10.9 1.2 51 18 18 10.0 100.77     Mostly Cloudy
19:00 Legend Double Dagger 9.6 1.3 56 20 18 10.0 100.65     LegendNANA
20:00 Legend Double Dagger 9.3 1.3 57 20 18 10.0 100.55     LegendNANA
21:00 Legend Double Dagger 8.5 1.7 62 21 17 10.0 100.44     Cloudy
22:00 Legend Double Dagger 9.6 0.3 52 22 30 10.0 100.33     LegendNANA
23:00 Legend Double Dagger 9.7 -0.5 49 22 30 10.0 100.22     LegendNANA

Notes on Data Quality.

Legend

  • E = Estimated
  • M = Missing
  • NA = Not Available
  • ‡ = Partner data that is not subject to review by the National Climate Archives
Date modified: